Location: Great Malvern
(52.1167°N, 2.3167°W)
Time: 11:15:11
(UTC+00:00)

Lacrosse 4 Rocket - Pass Details

Date: 18 September 2020
Orbit: 543 x 615 km, 68.0° (Epoch: 25 October)

Event Time Altitude Azimuth Distance (km) Brightness Sun altitude
Rises 19:17:36 0° 324° (NW) 2,718 5.8 -10.1°
Reaches altitude 10° 19:21:26 10° 1° (N) 1,822 4.2 -10.7°
Maximum altitude 19:22:38 11° 18° (NNE) 1,753 3.9 -10.9°
Drops below altitude 10° 19:23:50 10° 35° (NE) 1,823 3.8 -11.1°
Enters shadow 19:25:48 - 58° (ENE) 2,186 4.0 -11.3°
